,,Stat6,,Stat2,,Stat8,,Stat9,,Stat10,,Wind1,,Wind1,
time,status,PA1M_AVG,status,PR1M_SUM,status,RH1M_AVG,status,SR1M_AVG,status,TA1M_AVG,status,W1dAve1m,status,W1sAve1m,
2005-10-10, 00:00:00,VALID,917.665,VALID,0,VALID,100,VALID,-0.0509425,VALID,19.5035,VALID,322,VALID,0,
2005-10-10, 00:01:00,VALID,917.639,VALID,0,VALID,100,VALID,-0.0679233,VALID,19.5263,VALID,334,VALID,0.233259,
2005-10-10, 00:02:00,VALID,917.632,VALID,0,VALID,100,VALID,-0.0509425,VALID,19.5591,VALID,6,VALID,0.477778,
2005-10-10, 00:03:00,VALID,917.625,VALID,0,VALID,100,VALID,-0.0679233,VALID,19.5688,VALID,10,VALID,0.38529,
2005-10-10, 00:04:00,VALID,917.629,VALID,0,VALID,100,VALID,-0.0169808,VALID,19.5852,VALID,12,VALID,0.0569741,
2005-10-10, 00:05:00,VALID,917.628,VALID,0,VALID,100,VALID,-0.0509425,VALID,19.5847,VALID,54,VALID,0.199405,
2005-10-10, 00:06:00,VALID,917.608,VALID,0.2,VALID,100,VALID,-0.0679233,VALID,19.5812,VALID,358,VALID,0.6875,
2005-10-10, 00:07:00,VALID,917.595,VALID,0,VALID,100,VALID,-0.0849042,VALID,19.5551,VALID,4,VALID,0.907366,
2005-10-10, 00:08:00,VALID,917.571,VALID,0,VALID,100,VALID,-0.0679233,VALID,19.5551,VALID,4,VALID,0.453488,
2005-10-10, 00:09:00,VALID,917.536,VALID,0,VALID,100,VALID,-0.0339617,VALID,19.5519,VALID,357,VALID,0.477412,
2005-10-10, 00:10:00,VALID,917.499,VALID,0,VALID,100,VALID,-0.0679233,VALID,19.5358,VALID,1,VALID,0.484169,
2005-10-10, 00:11:00,VALID,917.5,VALID,0,VALID,100,VALID,-0.0169808,VALID,19.5328,VALID,313,VALID,0.464236,
2005-10-10, 00:12:00,VALID,917.49,VALID,0.2,VALID,100,VALID,-0.0509425,VALID,19.5333,VALID,224,VALID,0.323103,
2005-10-10, 00:13:00,VALID,917.462,VALID,0,VALID,100,VALID,-0.0679233,VALID,19.5139,VALID,219,VALID,0.339208,
2005-10-10, 00:14:00,VALID,917.435,VALID,0.2,VALID,100,VALID,-0.0679233,VALID,19.4873,VALID,224,VALID,0.715909,
2005-10-10, 00:15:00,VALID,917.441,VALID,0,VALID,100,VALID,-0.0679233,VALID,19.5072,VALID,241,VALID,0.553163,
2005-10-10, 00:16:00,VALID,917.412,VALID,0.2,VALID,100,VALID,0,VALID,19.5134,VALID,254,VALID,0.331321,
2005-10-10, 00:17:00,VALID,917.394,VALID,0,VALID,100,VALID,-0.0339617,VALID,19.5166,VALID,278,VALID,0.474702,
2005-10-10, 00:18:00,VALID,917.389,VALID,0.2,VALID,100,VALID,-0.0849042,VALID,19.5231,VALID,285,VALID,0.324041,
2005-10-10, 00:19:00,VALID,917.386,VALID,0.2,VALID,100,VALID,-0.0679233,VALID,19.5459,VALID,16,VALID,1.12585,
2005-10-10, 00:20:00,VALID,917.359,VALID,0,VALID,100,VALID,-0.0679233,VALID,19.5787,VALID,49,VALID,0.973704,
2005-10-10, 00:21:00,VALID,917.359,VALID,0.2,VALID,100,VALID,-0.0849042,VALID,19.5752,VALID,263,VALID,0.585366,
2005-10-10, 00:22:00,VALID,917.334,VALID,0.2,VALID,100,VALID,-0.0509425,VALID,19.5457,VALID,230,VALID,0.202939,
2005-10-10, 00:23:00,VALID,917.317,VALID,0,VALID,100,VALID,-0.101885,VALID,19.5487,VALID,232,VALID,0.0262784,
2005-10-10, 00:24:00,VALID,917.297,VALID,0,VALID,100,VALID,-0.0679233,VALID,19.5591,VALID,21,VALID,0.682049,
2005-10-10, 00:25:00,VALID,917.298,VALID,0,VALID,100,VALID,-0.101885,VALID,19.5787,VALID,26,VALID,0.627378,
2005-10-10, 00:26:00,VALID,917.272,VALID,0,VALID,100,VALID,-0.0849042,VALID,19.582,VALID,19,VALID,0.916061,
2005-10-10, 00:27:00,VALID,917.279,VALID,0.2,VALID,100,VALID,-0.0509425,VALID,19.5653,VALID,263,VALID,0.567835,
2005-10-10, 00:28:00,VALID,917.28,VALID,0,VALID,100,VALID,-0.101885,VALID,19.5457,VALID,33,VALID,0.49814,
2005-10-10, 00:29:00,VALID,917.261,VALID,0,VALID,100,VALID,-0.101885,VALID,19.5425,VALID,335,VALID,0.864583,
2005-10-10, 00:30:00,VALID,917.271,VALID,0,VALID,100,VALID,-0.118866,VALID,19.5499,VALID,220,VALID,0.640816,
2005-10-10, 00:31:00,VALID,917.243,VALID,0,VALID,100,VALID,-0.0509425,VALID,19.5196,VALID,309,VALID,0.991815,
2005-10-10, 00:32:00,VALID,917.242,VALID,0,VALID,100,VALID,-0.0679233,VALID,19.5459,VALID,37,VALID,0.325586,
2005-10-10, 00:33:00,VALID,917.213,VALID,0,VALID,100,VALID,-0.101885,VALID,19.53,VALID,53,VALID,0.57049,
2005-10-10, 00:34:00,VALID,917.201,VALID,0,VALID,100,VALID,-0.0509425,VALID,19.5134,VALID,129,VALID,0.65625,
2005-10-10, 00:35:00,VALID,917.19,VALID,0,VALID,100,VALID,-0.0849042,VALID,19.5007,VALID,319,VALID,0.99256,
2005-10-10, 00:36:00,VALID,917.164,VALID,0,VALID,100,VALID,-0.0509425,VALID,19.5079,VALID,7,VALID,1.31602,
2005-10-10, 00:37:00,VALID,917.153,VALID,0,VALID,100,VALID,-0.0679233,VALID,19.4846,VALID,27,VALID,1.25856,
2005-10-10, 00:38:00,VALID,917.138,VALID,0,VALID,100,VALID,-0.0849042,VALID,19.4975,VALID,11,VALID,0.557528,
2005-10-10, 00:39:00,VALID,917.125,VALID,0,VALID,100,VALID,-0.101885,VALID,19.5169,VALID,22,VALID,0.034702,
2005-10-10, 00:40:00,VALID,917.113,VALID,0,VALID,100,VALID,-0.0339617,VALID,19.5333,VALID,12,VALID,0.870028,
2005-10-10, 00:41:00,VALID,917.122,VALID,0,VALID,100,VALID,-0.0679233,VALID,19.5298,VALID,356,VALID,0.653245,
2005-10-10, 00:42:00,VALID,917.095,VALID,0,VALID,100,VALID,-0.0679233,VALID,19.5233,VALID,23,VALID,0.702753,
2005-10-10, 00:43:00,VALID,917.091,VALID,0,VALID,100,VALID,-0.0679233,VALID,19.5007,VALID,305,VALID,0.641959,
2005-10-10, 00:44:00,VALID,917.087,VALID,0,VALID,100,VALID,-0.0509425,VALID,19.501,VALID,295,VALID,0.435976,
2005-10-10, 00:45:00,VALID,917.101,VALID,0,VALID,100,VALID,-0.0849042,VALID,19.4975,VALID,64,VALID,0.21076,
2005-10-10, 00:46:00,VALID,917.097,VALID,0,VALID,100,VALID,-0.0679233,VALID,19.4843,VALID,63,VALID,0.216146,
2005-10-10, 00:47:00,VALID,917.088,VALID,0,VALID,100,VALID,0,VALID,19.5062,VALID,58,VALID,0.0719477,
2005-10-10, 00:48:00,VALID,917.076,VALID,0,VALID,100,VALID,0.0339617,VALID,19.4508,VALID,271,VALID,0.419085,
2005-10-10, 00:49:00,VALID,917.067,VALID,0,VALID,100,VALID,0.0169808,VALID,19.4503,VALID,4,VALID,0.650521,
2005-10-10, 00:50:00,VALID,917.061,VALID,0,VALID,100,VALID,0.0509425,VALID,19.4732,VALID,18,VALID,0.889535,
2005-10-10, 00:51:00,VALID,917.033,VALID,0,VALID,100,VALID,0.0679233,VALID,19.4858,VALID,27,VALID,0.886896,
2005-10-10, 00:52:00,VALID,917.034,VALID,0,VALID,100,VALID,0.0339617,VALID,19.4799,VALID,10,VALID,0.305035,
2005-10-10, 00:53:00,VALID,917.005,VALID,0,VALID,100,VALID,0.0339617,VALID,19.4739,VALID,31,VALID,0.946801,
2005-10-10, 00:54:00,VALID,916.994,VALID,0,VALID,100,VALID,0.0339617,VALID,19.4535,VALID,12,VALID,0.626758,
2005-10-10, 00:55:00,VALID,916.987,VALID,0,VALID,100,VALID,0.0849042,VALID,19.4801,VALID,14,VALID,0.883721,
2005-10-10, 00:56:00,VALID,916.979,VALID,0,VALID,100,VALID,0.0339617,VALID,19.4769,VALID,360,VALID,0.695694,
2005-10-10, 00:57:00,VALID,916.968,VALID,0,VALID,100,VALID,0.0679233,VALID,19.457,VALID,21,VALID,0.587209,
2005-10-10, 00:58:00,VALID,916.954,VALID,0,VALID,100,VALID,0.0679233,VALID,19.4476,VALID,23,VALID,0.992914,
2005-10-10, 00:59:00,VALID,916.955,VALID,0,VALID,100,VALID,0.0849042,VALID,19.4247,VALID,26,VALID,0.83125,
2005-10-10, 01:00:00,VALID,916.94,VALID,0,VALID,100,VALID,0.0679233,VALID,19.4277,VALID,21,VALID,1.15699,
2005-10-10, 01:01:00,VALID,916.914,VALID,0,VALID,100,VALID,0.0679233,VALID,19.4123,VALID,348,VALID,0.675781,
2005-10-10, 01:02:00,VALID,916.925,VALID,0,VALID,100,VALID,0.0849042,VALID,19.3922,VALID,314,VALID,0.244141,
2005-10-10, 01:03:00,VALID,916.903,VALID,0,VALID,100,VALID,0.0509425,VALID,19.3827,VALID,328,VALID,0.304102,
2005-10-10, 01:04:00,VALID,916.903,VALID,0,VALID,100,VALID,0.0509425,VALID,19.4021,VALID,24,VALID,0.965843,
2005-10-10, 01:05:00,VALID,916.892,VALID,0,VALID,100,VALID,0.0849042,VALID,19.4116,VALID,16,VALID,0.962109,
2005-10-10, 01:06:00,VALID,916.888,VALID,0,VALID,100,VALID,0,VALID,19.4024,VALID,26,VALID,0.602121,
2005-10-10, 01:07:00,VALID,916.892,VALID,0,VALID,100,VALID,0.0339617,VALID,19.3954,VALID,19,VALID,0.887767,
2005-10-10, 01:08:00,VALID,916.883,VALID,0,VALID,100,VALID,0.0679233,VALID,19.4053,VALID,24,VALID,0.966844,
2005-10-10, 01:09:00,VALID,916.875,VALID,0,VALID,100,VALID,0.0169808,VALID,19.4187,VALID,17,VALID,0.796875,
2005-10-10, 01:10:00,VALID,916.864,VALID,0,VALID,100,VALID,0.0169808,VALID,19.4349,VALID,22,VALID,1.05705,
2005-10-10, 01:11:00,VALID,916.866,VALID,0,VALID,100,VALID,0.0339617,VALID,19.4543,VALID,23,VALID,0.821007,
2005-10-10, 01:12:00,VALID,916.844,VALID,0,VALID,100,VALID,0.0509425,VALID,19.4314,VALID,22,VALID,1.33292,
2005-10-10, 01:13:00,VALID,916.841,VALID,0,VALID,100,VALID,0,VALID,19.422,VALID,17,VALID,1.10454,
2005-10-10, 01:14:00,VALID,916.827,VALID,0,VALID,100,VALID,0.0339617,VALID,19.3989,VALID,11,VALID,0.654762,
2005-10-10, 01:15:00,VALID,916.821,VALID,0,VALID,100,VALID,0.0339617,VALID,19.3989,VALID,19,VALID,0.793605,
2005-10-10, 01:16:00,VALID,916.794,VALID,0,VALID,100,VALID,0.0679233,VALID,19.3957,VALID,17,VALID,1.27557,
2005-10-10, 01:17:00,VALID,916.789,VALID,0,VALID,100,VALID,0,VALID,19.3966,VALID,358,VALID,1.0943,
2005-10-10, 01:18:00,VALID,916.793,VALID,0,VALID,100,VALID,-0.0339617,VALID,19.3544,VALID,7,VALID,1.39807,
2005-10-10, 01:19:00,VALID,916.779,VALID,0,VALID,100,VALID,0,VALID,19.3514,VALID,23,VALID,1.37024,
2005-10-10, 01:20:00,VALID,916.791,VALID,0,VALID,100,VALID,0,VALID,19.3477,VALID,22,VALID,1.3908,
2005-10-10, 01:21:00,VALID,916.781,VALID,0,VALID,100,VALID,0,VALID,19.3544,VALID,6,VALID,0.926461,
2005-10-10, 01:22:00,VALID,916.773,VALID,0,VALID,100,VALID,0,VALID,19.3345,VALID,8,VALID,1.01543,
2005-10-10, 01:23:00,VALID,916.77,VALID,0,VALID,100,VALID,0,VALID,19.3224,VALID,325,VALID,1.18192,
2005-10-10, 01:24:00,VALID,916.754,VALID,0,VALID,100,VALID,0,VALID,19.2928,VALID,11,VALID,1.33668,
2005-10-10, 01:25:00,VALID,916.751,VALID,0,VALID,100,VALID,0,VALID,19.3062,VALID,353,VALID,1.48547,
2005-10-10, 01:26:00,VALID,916.761,VALID,0,VALID,100,VALID,0.0339617,VALID,19.3055,VALID,1,VALID,0.879192,
2005-10-10, 01:27:00,VALID,916.751,VALID,0,VALID,100,VALID,0,VALID,19.3189,VALID,17,VALID,1.02912,
2005-10-10, 01:28:00,VALID,916.724,VALID,0,VALID,100,VALID,0.0169808,VALID,19.3358,VALID,16,VALID,1.24855,
2005-10-10, 01:29:00,VALID,916.71,VALID,0,VALID,100,VALID,0,VALID,19.3253,VALID,1,VALID,1.40934,
2005-10-10, 01:30:00,VALID,916.725,VALID,0,VALID,100,VALID,0,VALID,19.3092,VALID,6,VALID,0.983984,
2005-10-10, 01:31:00,VALID,916.733,VALID,0,VALID,100,VALID,0,VALID,19.3124,VALID,10,VALID,1.13899,
2005-10-10, 01:32:00,VALID,916.718,VALID,0,VALID,100,VALID,0,VALID,19.3094,VALID,356,VALID,1.26363,
2005-10-10, 01:33:00,VALID,916.737,VALID,0,VALID,100,VALID,0,VALID,19.3127,VALID,342,VALID,0.630208,
2005-10-10, 01:34:00,VALID,916.746,VALID,0,VALID,100,VALID,0.0169808,VALID,19.3157,VALID,338,VALID,0.977289,
2005-10-10, 01:35:00,VALID,916.737,VALID,0,VALID,100,VALID,0,VALID,19.3127,VALID,8,VALID,0.895486,
2005-10-10, 01:36:00,VALID,916.738,VALID,0,VALID,100,VALID,0,VALID,19.3288,VALID,23,VALID,1.02168,
2005-10-10, 01:37:00,VALID,916.746,VALID,0,VALID,100,VALID,0,VALID,19.3417,VALID,12,VALID,1.57717,
2005-10-10, 01:38:00,VALID,916.74,VALID,0,VALID,100,VALID,0,VALID,19.3387,VALID,11,VALID,1.64881,
2005-10-10, 01:39:00,VALID,916.749,VALID,0,VALID,100,VALID,0,VALID,19.335,VALID,11,VALID,1.18559,
2005-10-10, 01:40:00,VALID,916.756,VALID,0,VALID,100,VALID,0,VALID,19.3387,VALID,359,VALID,0.915104,
2005-10-10, 01:41:00,VALID,916.761,VALID,0,VALID,100,VALID,0,VALID,19.3554,VALID,16,VALID,0.954033,
2005-10-10, 01:42:00,VALID,916.765,VALID,0,VALID,100,VALID,0,VALID,19.3447,VALID,17,VALID,0.896341,
2005-10-10, 01:43:00,VALID,916.768,VALID,0,VALID,100,VALID,0,VALID,19.3415,VALID,13,VALID,1.10138,
2005-10-10, 01:44:00,VALID,916.766,VALID,0,VALID,100,VALID,-0.0169808,VALID,19.3422,VALID,352,VALID,0.82303,
2005-10-10, 01:45:00,VALID,916.773,VALID,0,VALID,100,VALID,0,VALID,19.3283,VALID,347,VALID,0.734375,
2005-10-10, 01:46:00,VALID,916.762,VALID,0,VALID,100,VALID,0,VALID,19.3387,VALID,7,VALID,0.793164,
2005-10-10, 01:47:00,VALID,916.75,VALID,0,VALID,100,VALID,-0.0169808,VALID,19.3256,VALID,11,VALID,1.43524,
2005-10-10, 01:48:00,VALID,916.74,VALID,0,VALID,100,VALID,0,VALID,19.332,VALID,18,VALID,1.67324,
2005-10-10, 01:49:00,VALID,916.727,VALID,0,VALID,100,VALID,0,VALID,19.3189,VALID,9,VALID,1.3971,
2005-10-10, 01:50:00,VALID,916.725,VALID,0,VALID,100,VALID,0,VALID,19.3159,VALID,21,VALID,0.862282,
2005-10-10, 01:51:00,VALID,916.708,VALID,0,VALID,100,VALID,0,VALID,19.3122,VALID,11,VALID,1.49822,
2005-10-10, 01:52:00,VALID,916.688,VALID,0,VALID,100,VALID,0,VALID,19.3124,VALID,11,VALID,1.38681,
2005-10-10, 01:53:00,VALID,916.671,VALID,0,VALID,100,VALID,0,VALID,19.3085,VALID,21,VALID,1.29297,
2005-10-10, 01:54:00,VALID,916.667,VALID,0,VALID,100,VALID,0,VALID,19.3224,VALID,11,VALID,1.01074,
2005-10-10, 01:55:00,VALID,916.65,VALID,0,VALID,100,VALID,0.0169808,VALID,19.3323,VALID,4,VALID,0.758345,
2005-10-10, 01:56:00,VALID,916.643,VALID,0,VALID,100,VALID,0,VALID,19.3124,VALID,347,VALID,0.680043,
2005-10-10, 01:57:00,VALID,916.632,VALID,0,VALID,100,VALID,-0.0169808,VALID,19.3191,VALID,7,VALID,0.783067,
2005-10-10, 01:58:00,VALID,916.623,VALID,0,VALID,100,VALID,0,VALID,19.3092,VALID,25,VALID,1.05523,
2005-10-10, 01:59:00,VALID,916.611,VALID,0,VALID,100,VALID,0.0169808,VALID,19.2995,VALID,13,VALID,1.6141,
2005-10-10, 02:00:00,VALID,916.597,VALID,0,VALID,100,VALID,0,VALID,19.3129,VALID,20,VALID,1.46336,
2005-10-10, 02:01:00,VALID,916.619,VALID,0,VALID,100,VALID,0,VALID,19.3129,VALID,6,VALID,1.09475,
2005-10-10, 02:02:00,VALID,916.612,VALID,0,VALID,100,VALID,0.0169808,VALID,19.3159,VALID,14,VALID,0.75071,
2005-10-10, 02:03:00,VALID,916.616,VALID,0,VALID,100,VALID,-0.0169808,VALID,19.3092,VALID,11,VALID,0.508345,
2005-10-10, 02:04:00,VALID,916.604,VALID,0,VALID,100,VALID,0,VALID,19.3256,VALID,22,VALID,0.528274,
2005-10-10, 02:05:00,VALID,916.596,VALID,0,VALID,100,VALID,0,VALID,19.3127,VALID,30,VALID,0.556445,
2005-10-10, 02:06:00,VALID,916.592,VALID,0,VALID,100,VALID,0,VALID,19.3194,VALID,33,VALID,0.541969,
2005-10-10, 02:07:00,VALID,916.589,VALID,0,VALID,100,VALID,0,VALID,19.3092,VALID,31,VALID,0.594893,
2005-10-10, 02:08:00,VALID,916.586,VALID,0,VALID,100,VALID,0,VALID,19.3027,VALID,17,VALID,0.647347,
2005-10-10, 02:09:00,VALID,916.591,VALID,0,VALID,100,VALID,0.0169808,VALID,19.3094,VALID,14,VALID,0.364211,
2005-10-10, 02:10:00,VALID,916.61,VALID,0,VALID,100,VALID,0,VALID,19.3191,VALID,32,VALID,0.567336,
2005-10-10, 02:11:00,VALID,916.631,VALID,0,VALID,100,VALID,0.0339617,VALID,19.3127,VALID,42,VALID,0.612393,
2005-10-10, 02:12:00,VALID,916.641,VALID,0,VALID,100,VALID,0,VALID,19.2898,VALID,51,VALID,0.513445,
2005-10-10, 02:13:00,VALID,916.665,VALID,0,VALID,100,VALID,-0.0169808,VALID,19.2901,VALID,51,VALID,0.378906,
2005-10-10, 02:14:00,VALID,916.665,VALID,0,VALID,100,VALID,-0.0169808,VALID,19.2868,VALID,54,VALID,0.427455,
2005-10-10, 02:15:00,VALID,916.671,VALID,0,VALID,100,VALID,-0.0169808,VALID,19.2873,VALID,76,VALID,0.403963,
2005-10-10, 02:16:00,VALID,916.684,VALID,0,VALID,100,VALID,0,VALID,19.2841,VALID,83,VALID,0.416109,
2005-10-10, 02:17:00,VALID,916.68,VALID,0,VALID,100,VALID,-0.0169808,VALID,19.2774,VALID,85,VALID,0.396257,
2005-10-10, 02:18:00,VALID,916.662,VALID,0,VALID,100,VALID,-0.0679233,VALID,19.2612,VALID,85,VALID,0.375,
2005-10-10, 02:19:00,VALID,916.664,VALID,0,VALID,100,VALID,-0.0509425,VALID,19.2682,VALID,85,VALID,0.703683,
2005-10-10, 02:20:00,VALID,916.656,VALID,0,VALID,100,VALID,-0.0849042,VALID,19.2617,VALID,80,VALID,0.731534,
2005-10-10, 02:21:00,VALID,916.657,VALID,0,VALID,100,VALID,-0.0679233,VALID,19.2749,VALID,91,VALID,0.65904,
2005-10-10, 02:22:00,VALID,916.648,VALID,0,VALID,100,VALID,-0.0509425,VALID,19.2779,VALID,93,VALID,0.648438,
2005-10-10, 02:23:00,VALID,916.656,VALID,0,VALID,100,VALID,-0.0849042,VALID,19.291,VALID,97,VALID,0.635121,
2005-10-10, 02:24:00,VALID,916.66,VALID,0,VALID,100,VALID,-0.0849042,VALID,19.294,VALID,104,VALID,0.559103,
2005-10-10, 02:25:00,VALID,916.665,VALID,0,VALID,100,VALID,-0.0679233,VALID,19.3005,VALID,103,VALID,0.665039,
2005-10-10, 02:26:00,VALID,916.66,VALID,0,VALID,100,VALID,-0.0849042,VALID,19.3007,VALID,110,VALID,0.464844,
2005-10-10, 02:27:00,VALID,916.648,VALID,0,VALID,100,VALID,-0.0509425,VALID,19.3039,VALID,117,VALID,0.669212,
2005-10-10, 02:28:00,VALID,916.645,VALID,0,VALID,100,VALID,-0.0339617,VALID,19.2838,VALID,130,VALID,0.730945,
2005-10-10, 02:29:00,VALID,916.644,VALID,0,VALID,100,VALID,-0.0679233,VALID,19.2878,VALID,132,VALID,0.837798,
2005-10-10, 02:30:00,VALID,916.649,VALID,0,VALID,100,VALID,-0.0509425,VALID,19.2876,VALID,139,VALID,0.829055,
2005-10-10, 02:31:00,VALID,916.647,VALID,0,VALID,100,VALID,-0.0849042,VALID,19.288,VALID,123,VALID,0.585938,
2005-10-10, 02:32:00,VALID,916.646,VALID,0,VALID,100,VALID,0.0169808,VALID,19.2739,VALID,127,VALID,0.806974,
2005-10-10, 02:33:00,VALID,916.651,VALID,0,VALID,100,VALID,0.0509425,VALID,19.263,VALID,136,VALID,0.59654,
2005-10-10, 02:34:00,VALID,916.648,VALID,0,VALID,100,VALID,0.0679233,VALID,19.2801,VALID,137,VALID,0.253205,
2005-10-10, 02:35:00,VALID,916.647,VALID,0,VALID,100,VALID,0.0169808,VALID,19.2704,VALID,137,VALID,0.21782,
2005-10-10, 02:36:00,VALID,916.657,VALID,0,VALID,100,VALID,0.0169808,VALID,19.2607,VALID,137,VALID,0.308494,
2005-10-10, 02:37:00,VALID,916.648,VALID,0,VALID,100,VALID,-0.0849042,VALID,19.259,VALID,137,VALID,0.283482,
2005-10-10, 02:38:00,VALID,916.647,VALID,0,VALID,100,VALID,-0.0679233,VALID,19.2557,VALID,137,VALID,0.254954,
2005-10-10, 02:39:00,VALID,916.643,VALID,0,VALID,100,VALID,-0.0679233,VALID,19.2426,VALID,136,VALID,0.351944,
2005-10-10, 02:40:00,VALID,916.652,VALID,0,VALID,100,VALID,-0.0849042,VALID,19.2396,VALID,135,VALID,0.520894,
2005-10-10, 02:41:00,VALID,916.641,VALID,0,VALID,100,VALID,-0.0679233,VALID,19.2364,VALID,135,VALID,0.313889,
2005-10-10, 02:42:00,VALID,916.642,VALID,0,VALID,100,VALID,-0.0849042,VALID,19.2361,VALID,135,VALID,0.550327,
2005-10-10, 02:43:00,VALID,916.634,VALID,0,VALID,100,VALID,-0.0679233,VALID,19.2359,VALID,135,VALID,0.52846,
2005-10-10, 02:44:00,VALID,916.635,VALID,0,VALID,100,VALID,-0.0849042,VALID,19.2657,VALID,132,VALID,0.384301,
2005-10-10, 02:45:00,VALID,916.63,VALID,0,VALID,100,VALID,-0.0849042,VALID,19.2555,VALID,132,VALID,0.378906,
2005-10-10, 02:46:00,VALID,916.629,VALID,0,VALID,100,VALID,-0.101885,VALID,19.2555,VALID,132,VALID,0.3484,
2005-10-10, 02:47:00,VALID,916.629,VALID,0,VALID,100,VALID,0,VALID,19.2744,VALID,132,VALID,0.306108,
2005-10-10, 02:48:00,VALID,916.633,VALID,0,VALID,100,VALID,0.0169808,VALID,19.26,VALID,132,VALID,0.308061,
2005-10-10, 02:49:00,VALID,916.62,VALID,0,VALID,100,VALID,0.0509425,VALID,19.2834,VALID,132,VALID,0.478795,
2005-10-10, 02:50:00,VALID,916.631,VALID,0,VALID,100,VALID,0.0509425,VALID,19.2737,VALID,132,VALID,0.344477,
2005-10-10, 02:51:00,VALID,916.638,VALID,0,VALID,100,VALID,0.0679233,VALID,19.2729,VALID,132,VALID,0.323765,
2005-10-10, 02:52:00,VALID,916.648,VALID,0,VALID,100,VALID,0.0849042,VALID,19.2759,VALID,132,VALID,0.463542,
2005-10-10, 02:53:00,VALID,916.649,VALID,0,VALID,100,VALID,0.0849042,VALID,19.2697,VALID,132,VALID,0.107329,
2005-10-10, 02:54:00,VALID,916.671,VALID,0,VALID,100,VALID,0.0169808,VALID,19.2764,VALID,132,VALID,0.0373884,
2005-10-10, 02:55:00,VALID,916.694,VALID,0,VALID,100,VALID,0.0849042,VALID,19.2767,VALID,132,VALID,0,
2005-10-10, 02:56:00,VALID,916.698,VALID,0,VALID,100,VALID,0.0849042,VALID,19.2762,VALID,132,VALID,0.0330669,
2005-10-10, 02:57:00,VALID,916.715,VALID,0,VALID,100,VALID,0.0679233,VALID,19.2665,VALID,132,VALID,0.181402,
2005-10-10, 02:58:00,VALID,916.737,VALID,0,VALID,100,VALID,0.0849042,VALID,19.2566,VALID,132,VALID,0.307173,
2005-10-10, 02:59:00,VALID,916.752,VALID,0,VALID,100,VALID,0.0849042,VALID,19.26,VALID,132,VALID,0.519259,
2005-10-10, 03:00:00,VALID,916.76,VALID,0,VALID,100,VALID,0.0679233,VALID,19.2565,VALID,132,VALID,0.576389,
2005-10-10, 03:01:00,VALID,916.773,VALID,0,VALID,100,VALID,0.0679233,VALID,19.2603,VALID,132,VALID,0.557118,
2005-10-10, 03:02:00,VALID,916.775,VALID,0,VALID,100,VALID,0,VALID,19.2647,VALID,132,VALID,0.480114,
2005-10-10, 03:03:00,VALID,916.776,VALID,0,VALID,100,VALID,-0.0339617,VALID,19.2712,VALID,132,VALID,0.463118,
2005-10-10, 03:04:00,VALID,916.782,VALID,0,VALID,100,VALID,-0.0339617,VALID,19.291,VALID,132,VALID,0.23601,
2005-10-10, 03:05:00,VALID,916.767,VALID,0,VALID,100,VALID,-0.0509425,VALID,19.3106,VALID,129,VALID,0.423295,
2005-10-10, 03:06:00,VALID,916.745,VALID,0,VALID,100,VALID,-0.0509425,VALID,19.3176,VALID,125,VALID,0.393415,
2005-10-10, 03:07:00,VALID,916.75,VALID,0,VALID,100,VALID,-0.0679233,VALID,19.3333,VALID,125,VALID,0.252539,
2005-10-10, 03:08:00,VALID,916.741,VALID,0,VALID,100,VALID,-0.0509425,VALID,19.3392,VALID,125,VALID,0.00674716,
2005-10-10, 03:09:00,VALID,916.73,VALID,0,VALID,100,VALID,-0.0849042,VALID,19.3561,VALID,125,VALID,0,
2005-10-10, 03:10:00,VALID,916.727,VALID,0,VALID,100,VALID,-0.0509425,VALID,19.3693,VALID,125,VALID,0,
2005-10-10, 03:11:00,VALID,916.731,VALID,0,VALID,100,VALID,-0.0849042,VALID,19.3591,VALID,125,VALID,0.0600818,
2005-10-10, 03:12:00,VALID,916.719,VALID,0,VALID,100,VALID,-0.0679233,VALID,19.3524,VALID,125,VALID,0.179688,
2005-10-10, 03:13:00,VALID,916.726,VALID,0,VALID,100,VALID,-0.0339617,VALID,19.3564,VALID,125,VALID,0.377907,
2005-10-10, 03:14:00,VALID,916.716,VALID,0,VALID,100,VALID,-0.0679233,VALID,19.3464,VALID,125,VALID,0.176897,
2005-10-10, 03:15:00,VALID,916.706,VALID,0,VALID,100,VALID,-0.0679233,VALID,19.3529,VALID,125,VALID,0.262607,
2005-10-10, 03:16:00,VALID,916.715,VALID,0,VALID,100,VALID,-0.101885,VALID,19.3854,VALID,125,VALID,0.459293,
2005-10-10, 03:17:00,VALID,916.701,VALID,0,VALID,100,VALID,-0.0509425,VALID,19.3752,VALID,124,VALID,0.487723,
2005-10-10, 03:18:00,VALID,916.706,VALID,0,VALID,100,VALID,-0.101885,VALID,19.3626,VALID,124,VALID,0.390795,
2005-10-10, 03:19:00,VALID,916.71,VALID,0,VALID,100,VALID,-0.0679233,VALID,19.3658,VALID,124,VALID,0.287642,
2005-10-10, 03:20:00,VALID,916.706,VALID,0,VALID,100,VALID,-0.0509425,VALID,19.3623,VALID,76,VALID,0.361737,
2005-10-10, 03:21:00,VALID,916.714,VALID,0,VALID,100,VALID,-0.0679233,VALID,19.3656,VALID,75,VALID,0.106055,
2005-10-10, 03:22:00,VALID,916.722,VALID,0,VALID,100,VALID,-0.0509425,VALID,19.3593,VALID,75,VALID,0,
2005-10-10, 03:23:00,VALID,916.717,VALID,0,VALID,100,VALID,-0.0849042,VALID,19.3325,VALID,23,VALID,0.280729,
2005-10-10, 03:24:00,VALID,916.719,VALID,0,VALID,100,VALID,-0.0339617,VALID,19.3206,VALID,327,VALID,0.12157,
2005-10-10, 03:25:00,VALID,916.708,VALID,0,VALID,100,VALID,-0.0849042,VALID,19.3035,VALID,327,VALID,0.217448,
2005-10-10, 03:26:00,VALID,916.709,VALID,0,VALID,100,VALID,-0.0679233,VALID,19.3367,VALID,331,VALID,0.361235,
2005-10-10, 03:27:00,VALID,916.699,VALID,0,VALID,100,VALID,-0.0509425,VALID,19.3564,VALID,333,VALID,0.266135,
2005-10-10, 03:28:00,VALID,916.684,VALID,0,VALID,100,VALID,-0.0509425,VALID,19.3593,VALID,333,VALID,0.162997,
2005-10-10, 03:29:00,VALID,916.68,VALID,0,VALID,100,VALID,-0.0509425,VALID,19.3459,VALID,333,VALID,0.0662109,
2005-10-10, 03:30:00,VALID,916.679,VALID,0,VALID,100,VALID,-0.0849042,VALID,19.3397,VALID,333,VALID,0.165396,
2005-10-10, 03:31:00,VALID,916.661,VALID,0,VALID,100,VALID,-0.0679233,VALID,19.3104,VALID,333,VALID,0.400436,
2005-10-10, 03:32:00,VALID,916.652,VALID,0,VALID,100,VALID,-0.0169808,VALID,19.3166,VALID,333,VALID,0.0610795,
2005-10-10, 03:33:00,VALID,916.632,VALID,0,VALID,100,VALID,0.0169808,VALID,19.3127,VALID,333,VALID,0,
2005-10-10, 03:34:00,VALID,916.622,VALID,0,VALID,100,VALID,0,VALID,19.3258,VALID,333,VALID,0,
2005-10-10, 03:35:00,VALID,916.614,VALID,0,VALID,100,VALID,0.0679233,VALID,19.3124,VALID,333,VALID,0,
2005-10-10, 03:36:00,VALID,916.629,VALID,0,VALID,100,VALID,0.0339617,VALID,19.3253,VALID,333,VALID,0.10032,
2005-10-10, 03:37:00,VALID,916.63,VALID,0,VALID,100,VALID,0.0339617,VALID,19.3099,VALID,333,VALID,0.119731,
2005-10-10, 03:38:00,VALID,916.617,VALID,0,VALID,100,VALID,0.0169808,VALID,19.2963,VALID,333,VALID,0,
2005-10-10, 03:39:00,VALID,916.601,VALID,0,VALID,100,VALID,0.0509425,VALID,19.2769,VALID,333,VALID,0,
2005-10-10, 03:40:00,VALID,916.591,VALID,0,VALID,100,VALID,0.0509425,VALID,19.2767,VALID,333,VALID,0,
2005-10-10, 03:41:00,VALID,916.578,VALID,0,VALID,100,VALID,0.0339617,VALID,19.2841,VALID,333,VALID,0,
2005-10-10, 03:42:00,VALID,916.559,VALID,0,VALID,100,VALID,0.0339617,VALID,19.2771,VALID,334,VALID,0.0767912,
2005-10-10, 03:43:00,VALID,916.547,VALID,0,VALID,100,VALID,0.0169808,VALID,19.2642,VALID,19,VALID,0.364347,